Pond Inlet Airport

Airport
ICAO code: 
CYIO
Summary
ICAO Region: 
NAM
Territory: 
Location: 
Pond Inlet, Nunavut,
Coordinates: 
Aerial View: 
72° 42' 0.421" N, 77° 57' 30.714" W
Airport BS: 
Non Avian Wildlife Hazards to Aircraft
Airport CFIT: 
Altimeter Temperature Error Correction
Airport GND: 
Aircraft Ground De/Anti Icing
Airport WX: 
Fog
Metar
Observation
CYIO 081900Z 19004KT 14SM -SN OVC029 M19/M21 A2935 RMK SC8 SLP950
Station
Pond Inlet, N. W. T.
Date/Time
2021-12-08 19:00:00
Wind direction
190°
Wind speed
04 kts
Lowest cloud amount
overcast
Temperature
-19°C
Dew point
-21°C
Humidity
84%
Weather condition
light snow

Description

Airport serving Pond Inlet, Nunavut, Canada, operated by the government of Nunavut

Climatology

Tundra climate (Köppen climate classification ET) - warmest month has an average temperature of 0 - 10 degrees C.

Runways

Designator Length Width Surface Rops
02T/20T 1219 30 GVL No/No
Airport map: 
Aerial View: 

SKYbrary Partners:

Safety knowledge contributed by: